Starlink 6082

operational
NORAD ID: 56110 Int'l Des: 2023-046 Owner: SPXS Country: US Constellation: starlink
LEOCIRCULAR

Starlink 6082について

説明を読み込み中...

リアルタイム位置

3D地球を読み込み中...

次回通過

高度履歴

Altitude vs Time

uPlot chart will show altitude changes over time

軌道要素

1 56110U 23046T 25258.65727813 .00002011 00000-0 16384-3 0 9998
2 56110 43.0070 29.9349 0001373 269.6739 90.3946 15.02548419135730
Epoch: Sep 15, 2025 • Age: 18 hours

現在のステータス

高度 563.1 km
速度 7.59 km/s
衛星直下点 43.04°N, 20.42°W
打ち上げ日 Mar 29, 2023
運用期間 2.4 years
タイプ internet

技術仕様

分類 Payload
質量 305.00 kg
乾燥質量 290.00 kg
総質量 305.00 kg
長さ 0.20 m
直径 2.80 m
スパン 9.00 m
形状 Box + pan
製造者 SPXS
バスタイプ Starlink
フェーズステータス In Orbit
所有者/国 SPXS/US

大規模コンステレーション

Loading constellations...